Skip Page Navigation
NASA JPL Caltech
NASA Logo - Jet Propulsion Laboratory + View the NASA Portal
+ Center for Near-Earth Object Studies
JPL Home Earth Solar System Stars & Galaxies Technology
JPL Solar System Dynamics
BODIES ORBITS EPHEMERIDES TOOLS PHYSICAL DATA DISCOVERY FAQ SITE MAP
IMPORTANT: The SSD Announcement email list is now available. Major changes are coming in the near future, including possible hostname and/or URL changes. To be notified of such changes, subscribe to this email list.

Please visit this page for more details.


JPL Small-Body Database Browser
Search: [ help ]  
56622 (2000 JR75)
Classification: Main-belt Asteroid          SPK-ID: 2056622
Ephemeris | Orbit Diagram | Orbital Elements | Mission Design | Physical Parameters | Discovery Circumstances ]

[ show orbit diagram ]
Orbital Elements at Epoch 2458600.5 (2019-Apr-27.0) TDB
Reference: JPL 22 (heliocentric ecliptic J2000)
 Element Value Uncertainty (1-sigma)   Units 
e .1412538982709581 3.5413e-08  
a 2.337969235558675 9.5533e-09 au
q 2.00772196699844 8.1662e-08 au
i 6.385326965784728 3.8405e-06 deg
node 100.2446682434481 3.809e-05 deg
peri 190.2795643736142 4.0899e-05 deg
M 66.15712556570578 1.6102e-05 deg
tp 2458360.544481775722
(2018-Aug-30.04448178)
5.779e-05 TDB
period 1305.739719222618
3.57
8.0032e-06
2.191e-08
d
yr
n .2757057893699739 1.6899e-09 deg/d
Q 2.66821650411891 1.0903e-08 au
  Orbit Determination Parameters
   # obs. used (total)      998  
   data-arc span      7686 days (21.04 yr)  
   first obs. used      1998-11-17  
   last obs. used      2019-12-03  
   planetary ephem.      DE431  
   SB-pert. ephem.      SB431-N16  
   condition code      0  
   norm. resid. RMS      .55134  
   source      ORB  
   producer      Otto Matic  
   solution date      2019-Dec-14 05:45:38  

Additional Information
 Earth MOID = .991126 au 
 Jupiter MOID = 2.48834 au 
 T_jup = 3.545 
[ show covariance matrix ]

Ephemeris | Orbit Diagram | Orbital Elements | Mission Design | Physical Parameters | Discovery Circumstances ]

Physical Parameter Table
Parameter Symbol Value Units Sigma Reference Notes
absolute magnitude H 15.3   n/a MPO452939  

56622 (2000 JR75)          Discovered 2000-May-05 by LINEAR at Socorro
Reference: 20030318/Numbers.arcLast Updated: 2004-04-19

Alternate Designations
 2000 JR75 = 1998 XM98 
Ephemeris | Orbit Diagram | Orbital Elements | Mission Design | Physical Parameters | Discovery Circumstances ]
ABOUT SSD CREDITS/AWARDS PRIVACY/COPYRIGHT GLOSSARY LINKS
FirstGov 2020-Jan-21 00:09 UT
(server date/time)  
NASA Home Page
Site Manager:   Ryan S. Park
Webmaster  Alan B. Chamberlin